[[{"header":{"parameterUnit":"m.s-1","parameterCategory":1,"la1":30.2992,"la2":30.254,"lo1":-89.0895,"lo2":-89.0443,"dy":0.0025,"dx":0.0025,"nx":19,"ny":19,"refTime":"2026-03-30T03:00:00:Z","depth":0,"parameterNumber":2,"parameterNumberName":"U-component_of_WINDS"},"data":[0,0,0,-6.0423,-6.0425,-6.054,-6.054,-6.0715,-6.0717,0,0,0,0,0,0,0,0,0,0,0,-6.0407,-6.0409,-6.0422,-6.0426,-6.054,-6.054,-6.0715,-6.0717,0,0,0,0,0,0,0,0,0,0,0,-6.0406,-6.0409,-6.0411,-6.0426,-6.054,-6.054,-6.0714,-6.0618,0,0,0,0,0,0,0,0,0,0,-6.0502,-6.0506,-6.0408,-6.0411,-6.0427,-6.054,-6.054,-6.0612,-6.0624,-6.0676,0,-6.0729,0,-6.0726,-6.0731,-6.0731,0,0,0,-6.0411,-6.0497,-6.0511,-6.0411,-6.0428,-6.0539,-6.0484,-6.0618,-6.0631,-6.0691,-6.0731,-6.0737,-6.0729,-6.0732,-6.0733,-6.1085,-6.1087,0,0,-6.0405,-6.0438,-6.0502,-6.052,-6.0506,-6.0481,-6.0488,-6.0626,-6.0671,-6.0732,-6.074,-6.0732,-6.0733,-6.0735,-6.1082,-6.1085,0,0,0,-6.0397,-6.0434,-6.0444,-6.0514,-6.0532,-6.0484,-6.0493,-6.0664,-6.0665,-6.0742,-6.0734,-6.0734,-6.0737,-6.108,-6.1084,-6.1228,0,0,0,-6.0392,-6.0429,-6.0442,-6.0463,-6.053,-6.06,-6.0529,-6.0656,-6.067,-6.0733,-6.0735,-6.0739,-6.1077,-6.1082,-6.1218,-6.1289,0,0,0,-6.0393,-6.0429,-6.0452,-6.0464,-6.0515,-6.0597,-6.0605,-6.0658,-6.0666,-6.0732,-6.074,-6.1076,-6.1081,-6.121,-6.1275,-6.139,0,0,0,-6.0404,-6.0579,-6.0455,-6.0647,-6.0514,-6.0687,-6.0604,-6.073,-6.0804,-6.0736,-6.1078,-6.1083,-6.1207,-6.1267,-6.1381,-6.149,-6.1539,0,0,-6.0642,-6.0609,-6.0719,-6.0611,-6.0814,-6.0666,-6.089,-6.0926,-6.0903,-6.1025,-6.1033,-6.1221,-6.1274,-6.1388,-6.1808,-6.1847,0,0,0,-6.0806,-6.0885,-6.0932,-6.1004,-6.1037,-6.107,-6.1069,-6.1083,-6.1185,-6.0973,-6.1294,-6.1324,-6.139,-6.144,-6.1473,-6.1526,-6.1109,-6.1108,-6.1108,-6.1188,-6.1149,-6.1329,-6.1304,-6.1375,-6.1372,-6.1426,-6.1443,-6.1383,-6.146,-6.1495,-6.1755,-6.1815,-6.184,-6.1895,-6.1552,-6.1552,-6.1553,-6.1553,-6.1531,-6.1636,-6.1554,-6.1698,-6.1656,-6.1776,-6.1781,-6.1735,-6.1839,-6.1725,-6.1781,-6.1657,-6.1884,-6.193,-6.1564,-6.1562,-6.1561,-6.156,-6.1559,-6.1775,-6.1818,-6.1833,-6.1932,-6.2013,-6.1982,-6.2087,-6.2045,-6.2007,-6.2062,-6.2093,-6.209,-6.208,-6.208,-6.2081,-6.2082,-6.2083,-6.2084,-6.2084,-6.202,-6.2032,-6.2125,-6.2175,-6.2215,-6.2263,-6.2264,-6.2302,-6.2333,-6.2294,-6.2295,-6.2226,-6.1915,-6.1836,-6.2098,-6.2095,-6.2094,-6.2092,-6.2091,-6.2377,-6.229,-6.2434,-6.2475,-6.253,-6.2612,-6.2559,-6.264,-6.2666,-6.2719,-6.2639,-6.2418,-6.2379,-6.2352,-6.2286,-6.2649,-6.2649,-6.2649,-6.2649,-6.258,-6.2557,-6.2695,-6.2762,-6.2824,-6.279,-6.2953,-6.2956,-6.2944,-6.2957,-6.29,-6.281,-6.2785,-6.2761,-6.2725,-6.2663,-6.3113,-6.3114,-6.3114,-6.2795,-6.2777,-6.2924,-6.2912,-6.2952,-6.2987,-6.3139,-6.3219,-6.3188,-6.3132,-6.2966,-6.2947,-6.2801,-6.2757,-6.2693,-6.2639,-6.2523,0,0]},{"header":{"parameterUnit":"m.s-1","parameterCategory":1,"la1":30.2992,"la2":30.254,"lo1":-89.0895,"lo2":-89.0443,"dy":0.0025,"dx":0.0025,"nx":19,"ny":19,"refTime":"2026-03-30T03:00:00:Z","depth":0,"parameterNumber":3,"parameterNumberName":"V-component_of_WINDS"},"data":[0,0,0,1.2725,1.2726,1.2803,1.2803,1.2906,1.2907,0,0,0,0,0,0,0,0,0,0,0,1.2704,1.2705,1.2725,1.2727,1.2803,1.2803,1.2906,1.2907,0,0,0,0,0,0,0,0,0,0,0,1.2704,1.2704,1.2705,1.2727,1.2803,1.2803,1.2905,1.2846,0,0,0,0,0,0,0,0,0,0,1.2771,1.2754,1.2704,1.2705,1.2727,1.2803,1.2803,1.2843,1.285,1.2873,0,1.2893,0,1.2902,1.2914,1.2914,0,0,0,1.2725,1.2748,1.2767,1.2706,1.2728,1.2802,1.2768,1.2847,1.2855,1.2882,1.2895,1.2898,1.2903,1.2915,1.2915,1.3054,1.3054,0,0,1.2721,1.2719,1.2762,1.2772,1.2759,1.2766,1.277,1.2851,1.2865,1.2895,1.2901,1.2905,1.2915,1.2916,1.3053,1.3054,0,0,0,1.271,1.2716,1.2733,1.2768,1.2781,1.2768,1.2773,1.2862,1.2867,1.2902,1.2906,1.2916,1.2917,1.3052,1.3053,1.3087,0,0,0,1.2707,1.2709,1.2731,1.273,1.278,1.2822,1.2782,1.2862,1.2871,1.2906,1.2916,1.2918,1.3051,1.3053,1.3085,1.3104,0,0,0,1.2698,1.2708,1.272,1.273,1.2762,1.2821,1.2831,1.2864,1.2874,1.2914,1.2919,1.3051,1.3053,1.3082,1.31,1.3142,0,0,0,1.2688,1.2747,1.272,1.2788,1.2762,1.2841,1.2831,1.2889,1.2928,1.2917,1.3051,1.3053,1.3082,1.3098,1.314,1.3178,1.3193,0,0,1.2761,1.2755,1.2796,1.2774,1.2858,1.2829,1.2918,1.2955,1.2961,1.3023,1.3026,1.3086,1.31,1.3142,1.3277,1.3289,0,0,0,1.2818,1.2848,1.287,1.2907,1.2938,1.2967,1.2991,1.3005,1.3058,1.2992,1.3111,1.312,1.3144,1.3163,1.3173,1.3196,1.3061,1.3061,1.3061,1.2918,1.2924,1.2992,1.3008,1.3044,1.307,1.3101,1.3126,1.3119,1.3147,1.3166,1.3247,1.3269,1.3277,1.33,1.3185,1.3185,1.3186,1.3186,1.3027,1.3071,1.3064,1.3127,1.3134,1.3188,1.3217,1.3211,1.3264,1.3233,1.3255,1.3222,1.329,1.3311,1.3188,1.3188,1.3187,1.3187,1.3187,1.3094,1.3117,1.3134,1.3191,1.3235,1.3249,1.3301,1.3305,1.3308,1.333,1.3352,1.3352,1.3354,1.334,1.334,1.3341,1.3341,1.3341,1.3341,1.3158,1.3177,1.322,1.326,1.3287,1.3322,1.3351,1.3378,1.3409,1.3407,1.3407,1.3401,1.3295,1.3269,1.3346,1.3345,1.3344,1.3344,1.3344,1.327,1.3246,1.3313,1.3339,1.3389,1.3435,1.3439,1.3494,1.3516,1.3543,1.3532,1.3452,1.3447,1.3439,1.3418,1.3528,1.3528,1.3528,1.3528,1.3328,1.3326,1.3397,1.3441,1.3484,1.3496,1.3574,1.3599,1.3621,1.3636,1.3621,1.3593,1.3584,1.3584,1.3573,1.3554,1.3696,1.3696,1.3697,1.3399,1.3402,1.3467,1.3488,1.3529,1.3564,1.3639,1.3691,1.371,1.3704,1.3649,1.3642,1.3597,1.3582,1.3574,1.3556,1.3521,0,0]}]]